Time,TemperatureF,DewpointF,PressureIn,WindDirection,WindDirectionDegrees,WindSpeedMPH,WindSpeedGustMPH,Humidity,HourlyPrecipIn,Conditions,Clouds,dailyrainin,SoftwareType,DateUTC
2013-09-10 00:04:00,76.0,68.0,29.92,SSE,158,6.0,11.0,76,0.00,,,0.00,weatherlink.com 1.10,2013-09-10 05:04:00,
2013-09-10 00:19:00,75.9,68.0,29.92,SSE,165,3.0,11.0,76,0.00,,,0.00,weatherlink.com 1.10,2013-09-10 05:19:00,
2013-09-10 00:34:00,75.8,68.0,29.92,South,169,7.0,11.0,76,0.00,,,0.00,weatherlink.com 1.10,2013-09-10 05:34:00,
2013-09-10 00:49:00,75.7,68.0,29.93,SSE,168,9.0,10.0,77,0.00,,,0.00,weatherlink.com 1.10,2013-09-10 05:49:00,
2013-09-10 01:04:00,75.6,68.0,29.93,SSE,155,9.0,13.0,77,0.00,,,0.00,weatherlink.com 1.10,2013-09-10 06:04:00,
2013-09-10 01:20:00,75.3,68.0,29.93,SSE,162,10.0,11.0,78,0.00,,,0.00,weatherlink.com 1.10,2013-09-10 06:20:00,
2013-09-10 01:35:00,75.2,68.0,29.93,SSE,157,9.0,11.0,78,0.00,,,0.00,weatherlink.com 1.10,2013-09-10 06:35:00,
2013-09-10 01:50:00,75.0,68.0,29.93,SSE,151,7.0,10.0,79,0.00,,,0.00,weatherlink.com 1.10,2013-09-10 06:50:00,
2013-09-10 02:05:00,74.8,68.0,29.93,SSE,147,5.0,10.0,79,0.00,,,0.00,weatherlink.com 1.10,2013-09-10 07:05:00,
2013-09-10 02:20:00,74.6,68.0,29.93,SSE,147,7.0,9.0,79,0.00,,,0.00,weatherlink.com 1.10,2013-09-10 07:20:00,
2013-09-10 02:35:00,74.5,68.0,29.93,SSE,147,6.0,8.0,80,0.00,,,0.00,weatherlink.com 1.10,2013-09-10 07:35:00,
2013-09-10 02:50:00,74.4,68.0,29.93,SE,146,6.0,10.0,80,0.00,,,0.00,weatherlink.com 1.10,2013-09-10 07:50:00,
2013-09-10 03:05:00,74.4,68.0,29.93,SE,140,7.0,9.0,80,0.00,,,0.00,weatherlink.com 1.10,2013-09-10 08:05:00,
2013-09-10 03:20:00,74.4,68.0,29.94,SSE,157,6.0,13.0,81,0.00,,,0.00,weatherlink.com 1.10,2013-09-10 08:20:00,
2013-09-10 03:35:00,74.6,68.0,29.93,SSE,152,9.0,11.0,81,0.00,,,0.00,weatherlink.com 1.10,2013-09-10 08:35:00,
2013-09-10 03:50:00,74.3,68.0,29.93,SE,145,6.0,9.0,81,0.00,,,0.00,weatherlink.com 1.10,2013-09-10 08:50:00,
2013-09-10 04:05:00,74.1,68.0,29.93,SE,145,6.0,8.0,82,0.00,,,0.00,weatherlink.com 1.10,2013-09-10 09:05:00,
2013-09-10 04:20:00,74.0,68.0,29.94,SE,145,5.0,9.0,82,0.00,,,0.00,weatherlink.com 1.10,2013-09-10 09:20:00,
2013-09-10 04:35:00,73.9,68.0,29.94,SE,145,7.0,9.0,82,0.00,,,0.00,weatherlink.com 1.10,2013-09-10 09:35:00,
2013-09-10 04:50:00,74.0,69.0,29.94,SE,145,7.0,9.0,83,0.00,,,0.00,weatherlink.com 1.10,2013-09-10 09:50:00,
2013-09-10 05:05:00,74.0,69.0,29.94,SE,145,7.0,8.0,83,0.00,,,0.00,weatherlink.com 1.10,2013-09-10 10:05:00,
2013-09-10 05:20:00,74.2,69.0,29.94,SE,138,2.0,9.0,83,0.00,,,0.00,weatherlink.com 1.10,2013-09-10 10:20:00,
2013-09-10 05:35:00,74.4,69.0,29.94,SE,134,7.0,11.0,83,0.00,,,0.00,weatherlink.com 1.10,2013-09-10 10:35:00,
2013-09-10 05:50:00,74.4,69.0,29.94,SE,136,9.0,12.0,84,0.00,,,0.00,weatherlink.com 1.10,2013-09-10 10:50:00,
2013-09-10 06:05:00,74.5,69.0,29.94,SE,132,5.0,12.0,84,0.00,,,0.00,weatherlink.com 1.10,2013-09-10 11:05:00,
2013-09-10 06:20:00,74.4,69.0,29.95,SE,135,8.0,11.0,84,0.00,,,0.00,weatherlink.com 1.10,2013-09-10 11:20:00,
2013-09-10 06:35:00,74.4,69.0,29.95,SE,137,7.0,9.0,84,0.00,,,0.00,weatherlink.com 1.10,2013-09-10 11:35:00,
2013-09-10 06:50:00,74.3,69.0,29.95,SE,138,7.0,9.0,84,0.00,,,0.00,weatherlink.com 1.10,2013-09-10 11:50:00,
2013-09-10 07:05:00,74.1,69.0,29.96,SE,129,7.0,10.0,85,0.00,,,0.00,weatherlink.com 1.10,2013-09-10 12:05:00,
2013-09-10 07:20:00,74.0,69.0,29.96,SE,131,9.0,10.0,85,0.00,,,0.00,weatherlink.com 1.10,2013-09-10 12:20:00,
2013-09-10 07:35:00,73.9,69.0,29.96,SE,129,5.0,10.0,85,0.00,,,0.00,weatherlink.com 1.10,2013-09-10 12:35:00,
2013-09-10 07:50:00,74.1,69.0,29.97,SE,130,4.0,9.0,85,0.00,,,0.00,weatherlink.com 1.10,2013-09-10 12:50:00,
2013-09-10 08:05:00,74.3,70.0,29.98,SE,138,7.0,9.0,85,0.00,,,0.00,weatherlink.com 1.10,2013-09-10 13:05:00,
2013-09-10 08:20:00,74.6,70.0,29.98,SE,138,9.0,10.0,85,0.00,,,0.00,weatherlink.com 1.10,2013-09-10 13:20:00,
2013-09-10 08:35:00,75.3,71.0,29.98,SE,134,7.0,11.0,85,0.00,,,0.00,weatherlink.com 1.10,2013-09-10 13:35:00,
2013-09-10 08:50:00,76.0,71.0,29.99,SE,136,7.0,12.0,85,0.00,,,0.00,weatherlink.com 1.10,2013-09-10 13:50:00,
2013-09-10 09:05:00,76.2,71.0,29.99,SE,131,7.0,14.0,84,0.00,,,0.00,weatherlink.com 1.10,2013-09-10 14:05:00,
2013-09-10 09:20:00,76.6,72.0,29.99,SE,143,11.0,15.0,84,0.00,,,0.00,weatherlink.com 1.10,2013-09-10 14:20:00,
2013-09-10 09:35:00,76.7,72.0,30.00,SSE,148,2.0,9.0,84,0.00,,,0.00,weatherlink.com 1.10,2013-09-10 14:35:00,
2013-09-10 09:50:00,78.3,72.0,30.00,SSE,152,13.0,15.0,82,0.00,,,0.00,weatherlink.com 1.10,2013-09-10 14:50:00,
2013-09-10 10:06:00,78.5,72.0,30.00,SSE,148,6.0,14.0,81,0.00,,,0.00,weatherlink.com 1.10,2013-09-10 15:06:00,
2013-09-10 10:21:00,79.1,72.0,30.01,SSE,167,12.0,14.0,80,0.00,,,0.00,weatherlink.com 1.10,2013-09-10 15:21:00,
2013-09-10 10:36:00,79.8,73.0,30.01,SSE,167,12.0,13.0,79,0.00,,,0.00,weatherlink.com 1.10,2013-09-10 15:36:00,
2013-09-10 10:51:00,80.4,73.0,30.01,SSE,148,8.0,14.0,78,0.00,,,0.00,weatherlink.com 1.10,2013-09-10 15:51:00,
2013-09-10 11:06:00,81.8,74.0,30.01,SSE,159,7.0,18.0,77,0.00,,,0.00,weatherlink.com 1.10,2013-09-10 16:06:00,
2013-09-10 11:21:00,81.7,73.0,30.01,SSE,166,9.0,16.0,76,0.00,,,0.00,weatherlink.com 1.10,2013-09-10 16:21:00,
2013-09-10 11:36:00,82.6,74.0,30.01,SSE,152,6.0,15.0,75,0.00,,,0.00,weatherlink.com 1.10,2013-09-10 16:36:00,
2013-09-10 11:51:00,82.7,73.0,30.01,SSE,168,4.0,15.0,73,0.00,,,0.00,weatherlink.com 1.10,2013-09-10 16:51:00,
2013-09-10 12:06:00,84.3,74.0,30.00,SSE,152,8.0,14.0,72,0.00,,,0.00,weatherlink.com 1.10,2013-09-10 17:06:00,
2013-09-10 12:21:00,85.5,75.0,30.00,SSE,149,7.0,15.0,70,0.00,,,0.00,weatherlink.com 1.10,2013-09-10 17:21:00,
2013-09-10 12:36:00,85.5,74.0,29.99,SSE,149,9.0,16.0,68,0.00,,,0.00,weatherlink.com 1.10,2013-09-10 17:36:00,
2013-09-10 12:51:00,85.4,74.0,29.99,SE,143,8.0,16.0,68,0.00,,,0.00,weatherlink.com 1.10,2013-09-10 17:51:00,
2013-09-10 13:06:00,86.6,74.0,29.99,South,171,13.0,15.0,66,0.00,,,0.00,weatherlink.com 1.10,2013-09-10 18:06:00,
2013-09-10 13:21:00,86.9,74.0,29.98,SSE,163,12.0,18.0,65,0.00,,,0.00,weatherlink.com 1.10,2013-09-10 18:21:00,
2013-09-10 13:36:00,87.0,73.0,29.98,South,169,11.0,17.0,64,0.00,,,0.00,weatherlink.com 1.10,2013-09-10 18:36:00,
2013-09-10 13:51:00,86.0,72.0,29.97,SSE,154,6.0,17.0,64,0.00,,,0.00,weatherlink.com 1.10,2013-09-10 18:51:00,
2013-09-10 14:06:00,86.4,72.0,29.96,SSE,158,10.0,11.0,63,0.00,,,0.00,weatherlink.com 1.10,2013-09-10 19:06:00,
2013-09-10 14:21:00,86.7,72.0,29.96,SE,140,8.0,16.0,62,0.00,,,0.00,weatherlink.com 1.10,2013-09-10 19:21:00,
2013-09-10 14:36:00,87.0,72.0,29.95,SE,136,10.0,11.0,62,0.00,,,0.00,weatherlink.com 1.10,2013-09-10 19:36:00,
2013-09-10 14:51:00,87.3,72.0,29.95,SE,136,11.0,13.0,61,0.00,,,0.00,weatherlink.com 1.10,2013-09-10 19:51:00,
2013-09-10 15:06:00,88.0,72.0,29.94,SE,144,11.0,14.0,59,0.00,,,0.00,weatherlink.com 1.10,2013-09-10 20:06:00,
2013-09-10 15:21:00,88.7,72.0,29.93,SE,138,11.0,16.0,58,0.00,,,0.00,weatherlink.com 1.10,2013-09-10 20:21:00,
2013-09-10 15:36:00,88.3,72.0,29.93,ESE,120,9.0,11.0,58,0.00,,,0.00,weatherlink.com 1.10,2013-09-10 20:36:00,
2013-09-10 15:51:00,88.0,71.0,29.92,SE,134,7.0,18.0,57,0.00,,,0.00,weatherlink.com 1.10,2013-09-10 20:51:00,
2013-09-10 16:06:00,88.0,71.0,29.91,ESE,103,10.0,14.0,58,0.00,,,0.00,weatherlink.com 1.10,2013-09-10 21:06:00,
2013-09-10 16:21:00,87.9,71.0,29.91,ESE,122,15.0,15.0,57,0.00,,,0.00,weatherlink.com 1.10,2013-09-10 21:21:00,
2013-09-10 16:36:00,88.5,71.0,29.91,East,98,6.0,11.0,57,0.00,,,0.00,weatherlink.com 1.10,2013-09-10 21:36:00,
2013-09-10 16:51:00,88.8,72.0,29.90,ESE,107,14.0,19.0,57,0.00,,,0.00,weatherlink.com 1.10,2013-09-10 21:51:00,
2013-09-10 17:06:00,88.6,71.0,29.90,East,86,10.0,14.0,57,0.00,,,0.00,weatherlink.com 1.10,2013-09-10 22:06:00,
2013-09-10 17:21:00,88.1,71.0,29.90,ESE,110,14.0,20.0,57,0.00,,,0.00,weatherlink.com 1.10,2013-09-10 22:21:00,
2013-09-10 17:37:00,87.7,71.0,29.90,ESE,106,10.0,18.0,57,0.00,,,0.00,weatherlink.com 1.10,2013-09-10 22:37:00,
2013-09-10 17:52:00,87.7,71.0,29.91,ESE,118,9.0,14.0,57,0.00,,,0.00,weatherlink.com 1.10,2013-09-10 22:52:00,
2013-09-10 18:07:00,87.8,71.0,29.91,SE,142,17.0,24.0,58,0.00,,,0.00,weatherlink.com 1.10,2013-09-10 23:07:00,
2013-09-10 18:22:00,84.4,69.0,29.92,SSE,152,18.0,33.0,61,0.00,,,0.00,weatherlink.com 1.10,2013-09-10 23:22:00,
2013-09-10 18:37:00,82.2,69.0,29.93,SSE,150,16.0,22.0,65,0.00,,,0.00,weatherlink.com 1.10,2013-09-10 23:37:00,
2013-09-10 18:52:00,82.2,70.0,29.94,SSE,154,14.0,21.0,66,0.00,,,0.00,weatherlink.com 1.10,2013-09-10 23:52:00,
2013-09-10 19:07:00,82.2,70.0,29.94,SSE,159,14.0,16.0,67,0.00,,,0.00,weatherlink.com 1.10,2013-09-11 00:07:00,
2013-09-10 19:22:00,82.0,70.0,29.94,SE,141,15.0,21.0,66,0.00,,,0.00,weatherlink.com 1.10,2013-09-11 00:22:00,
2013-09-10 19:37:00,81.4,69.0,29.95,SE,146,8.0,13.0,66,0.00,,,0.00,weatherlink.com 1.10,2013-09-11 00:37:00,
2013-09-10 19:52:00,81.1,69.0,29.95,SSE,154,9.0,13.0,66,0.00,,,0.00,weatherlink.com 1.10,2013-09-11 00:52:00,
2013-09-10 20:07:00,81.1,69.0,29.95,South,173,8.0,12.0,67,0.00,,,0.00,weatherlink.com 1.10,2013-09-11 01:07:00,
2013-09-10 20:22:00,80.7,69.0,29.96,South,175,7.0,13.0,67,0.00,,,0.00,weatherlink.com 1.10,2013-09-11 01:22:00,
2013-09-10 20:37:00,80.5,69.0,29.96,SSE,167,9.0,10.0,68,0.00,,,0.00,weatherlink.com 1.10,2013-09-11 01:37:00,
2013-09-10 20:52:00,80.3,69.0,29.97,South,171,8.0,11.0,68,0.00,,,0.00,weatherlink.com 1.10,2013-09-11 01:52:00,
2013-09-10 21:07:00,80.2,69.0,29.97,South,171,3.0,10.0,69,0.00,,,0.00,weatherlink.com 1.10,2013-09-11 02:07:00,
2013-09-10 21:22:00,80.0,69.0,29.98,South,171,7.0,9.0,69,0.00,,,0.00,weatherlink.com 1.10,2013-09-11 02:22:00,
2013-09-10 21:37:00,79.8,69.0,29.98,South,171,3.0,5.0,69,0.00,,,0.00,weatherlink.com 1.10,2013-09-11 02:37:00,
2013-09-10 21:52:00,79.6,69.0,29.98,South,171,3.0,8.0,70,0.00,,,0.00,weatherlink.com 1.10,2013-09-11 02:52:00,
2013-09-10 22:07:00,79.2,69.0,29.98,South,173,7.0,9.0,70,0.00,,,0.00,weatherlink.com 1.10,2013-09-11 03:07:00,
2013-09-10 22:22:00,79.2,69.0,29.99,South,177,7.0,9.0,71,0.00,,,0.00,weatherlink.com 1.10,2013-09-11 03:22:00,
2013-09-10 22:37:00,79.0,69.0,29.99,South,183,9.0,10.0,71,0.00,,,0.00,weatherlink.com 1.10,2013-09-11 03:37:00,
2013-09-10 22:52:00,78.8,69.0,29.99,South,186,5.0,8.0,71,0.00,,,0.00,weatherlink.com 1.10,2013-09-11 03:52:00,
2013-09-10 23:07:00,78.5,69.0,30.00,South,187,3.0,7.0,72,0.00,,,0.00,weatherlink.com 1.10,2013-09-11 04:07:00,
2013-09-10 23:22:00,78.1,68.0,30.00,South,187,2.0,5.0,72,0.00,,,0.00,weatherlink.com 1.10,2013-09-11 04:22:00,
2013-09-10 23:37:00,77.9,69.0,30.00,South,187,1.0,7.0,73,0.00,,,0.00,weatherlink.com 1.10,2013-09-11 04:37:00,
2013-09-10 23:52:00,77.9,69.0,30.00,South,186,4.0,8.0,73,0.00,,,0.00,weatherlink.com 1.10,2013-09-11 04:52:00,